FLOCK 4V-11 (46285 NORAD) Tracking and Keplerian Element Data

This shows tracking and keplerian element data for the satellite.

Feedback or suggestion? Click here.




ElementValue
Catalog46285
NameFLOCK 4V-11
Epoch Orbit1352
Epoch Day336.87448851
Epoch Year2020
RAAN48.2776
Inclination97.5109
Eccentricity0.0004678
Argument of Perigee52.3941
Mean Anonmoly307.7712
Mean Motion15.09989952
Decay Rate1.43E-05
L11 46285U 20061P 20336.87448851 .00001430 00000-0 91903-4 0 9997
L22 46285 97.5109 48.2776 0004678 52.3941 307.7712 15.09989952 13526

Live tracking and technical data element details for FLOCK 4V-11 (NORAD 46285). FLOCK 4V-11 can be tracked NOW for your location showing map with azimuth and elevation plus other details from your city location.

Track the satellite on the map from your city or location and see movement details for azimuth, elevation, latitude, longitude, range, height, and movement on the map or in text.







IsCatalogInMostPopularTable: catalog: 46285, numindb: 16
Update: records affected: 1



GetName: 46285 FLOCK 4V-11

Hit Count: updated at: Wed, 02 Dec 2020 19:00:23 GMT